Location: Del Amo
(33.8464°N, 118.2104°W)
Time: 07:47:20
(UTC+00:00)

Vanguard 3 - Pass Details

Date: 16 September 2024
Orbit: 507 x 3223 km, 33.3° (Epoch: 09 October)

Event Time Altitude Azimuth Distance (km) Brightness Sun altitude
Rises 19:35:18 0° 285° (WNW) 7,052 11.8 58.2°
Reaches altitude 10° 19:40:28 10° 282° (WNW) 5,828 11.5 58.3°
Maximum altitude 19:56:49 59° 210° (SSW) 2,389 11.7 58.3°
Drops below altitude 10° 20:06:29 10° 133° (SE) 3,595 10.8 58.0°
Sets 20:08:55 0° 129° (SE) 4,282 11.1 58.0°
